COSMOS 1349

导读 | 星芒AI

COSMOS 1349 是一颗由苏联发射的军用侦察卫星,于1982年3月12日从拜科努尔航天发射场发射升空。该卫星属于“宇宙”系列,主要用于执行光学和电子侦察任务,以收集战略情报。其具体轨道参数和任务细节未公开,但据推测,它运行在近地轨道,具备高分辨率成像能力。COSMOS 1349 在苏联冷战时期的太空监视和军事战略中发挥了重要作用,体现了当时苏联在航天侦察技术方面的先进水平。

基本信息
目录编号:
13127
目录名称:
COSMOS 1349
国际标识:
1982-030A
轨道中心:
EARTH
卫星名称:
COSMOS 1349
卫星全名:
--
卫星状态:
在轨 (已飞行15957 天)
发射日期:
1982-04-08 UTC
国别 :
俄罗斯(独联体) (CIS)
星等 :
--
轨道信息
数据来源 国际轨道数据
星历时间: 2025-12-14T15:32:24+0800
1天前
查看轨道信息
半长轴: 7363.341km
偏心率: 0.003037
轨道倾角: 82.929°
近地点辐角 189.135°
升交点赤经 299.214°
平近点角 284.994°
近地点: 962.843km
远地点: 1007.569km
周期: 104.803分钟
每日圈数: 13.740116
详细信息
使用方式:
暂无
2D轨道图
3D轨道图
轨道高度分析图
轨道倾角分析图
轨道综合分析图
查看轨道综合分析图